[[{"header":{"parameterUnit":"m.s-1","parameterCategory":1,"la1":30.2991,"la2":30.254,"lo1":-89.0895,"lo2":-89.0444,"dy":0.0017,"dx":0.0017,"nx":28,"ny":28,"refTime":"2025-03-31T03:00:00:Z","depth":0,"parameterNumber":2,"parameterNumberName":"U-component_of_WINDS"},"data":[0,0,0,0,0,0,0,0,0,0,0,0,0,0,0,0,0,0,0,0,0,0,0,0,0,0,0,0,0,0,0,0,0,0,0,0,0,0,0,0,0,0,0,0,0,0,0,0,0,0,0,0,0,0,0,0,0,0,-0.78,-0.78,0,-0.7756,-0.7756,-0.7755,-0.7754,-0.7755,-0.7755,-0.7756,-0.7709,-0.7707,-0.7705,0,0,0,0,0,0,0,0,0,0,0,0,0,-0.7883,-0.7882,-0.78,-0.78,-0.7799,-0.7756,-0.7756,-0.7755,-0.7754,-0.7755,-0.7755,-0.7756,-0.7709,-0.7707,-0.7705,0,0,0,0,0,0,0,0,0,0,0,0,0,-0.7844,-0.7881,-0.7801,-0.7794,-0.7793,-0.7756,-0.7756,-0.7755,-0.7754,-0.7755,-0.7755,-0.7756,-0.771,-0.7707,-0.7705,-0.7672,0,0,-0.7697,-0.7695,0,0,0,0,0,0,0,0,-0.7846,-0.7841,-0.7795,-0.7794,-0.7793,-0.7761,-0.7767,-0.7727,-0.7754,-0.7768,-0.7756,-0.7757,-0.7725,-0.7722,-0.7711,-0.767,-0.7668,-0.7696,-0.7695,-0.7694,-0.7693,0,0,0,0,0,0,0,-0.7849,-0.7843,-0.7783,-0.7795,-0.7793,-0.7792,-0.7788,-0.776,-0.7743,-0.7767,-0.7767,-0.7762,-0.7725,-0.7714,-0.771,-0.7667,-0.7696,-0.7694,-0.7692,-0.7691,-0.7596,-0.7595,0,0,0,0,0,0,-0.7853,-0.7845,-0.7784,-0.7782,-0.7822,-0.779,-0.7785,-0.7771,-0.7743,-0.774,-0.7761,-0.7762,-0.7718,-0.7713,-0.7709,-0.7668,-0.7694,-0.7691,-0.769,-0.7597,-0.7596,-0.7595,0,0,0,0,0,0,-0.7855,-0.7848,-0.7786,-0.7813,-0.7805,-0.7788,-0.7772,-0.7769,-0.7758,-0.7739,-0.7735,-0.7753,-0.7719,-0.7712,-0.7681,-0.7666,-0.769,-0.7688,-0.7598,-0.7596,-0.7595,-0.7586,0,0,0,0,0,0,-0.7857,-0.7848,-0.7836,-0.7813,-0.7804,-0.7759,-0.7771,-0.7768,-0.7754,-0.7755,-0.773,-0.7727,-0.7719,-0.7685,-0.7678,-0.7663,-0.7685,-0.7599,-0.7597,-0.7595,-0.7588,-0.7585,-0.7582,0,0,0,0,0,-0.786,-0.7835,-0.7835,-0.7828,-0.7788,-0.7759,-0.7753,-0.7745,-0.7753,-0.774,-0.7727,-0.7728,-0.7669,-0.7682,-0.7674,-0.7658,-0.76,-0.7598,-0.7596,-0.7589,-0.7585,-0.7582,0,0,0,0,0,0,-0.7855,-0.7831,-0.7832,-0.7798,-0.7781,-0.7759,-0.7742,-0.7741,-0.772,-0.7722,-0.7712,-0.7706,-0.7675,-0.7664,-0.7678,-0.7625,-0.7635,-0.7632,-0.7633,-0.7629,-0.7626,-0.7629,-0.7683,0,0,0,0,0,-0.7851,-0.7829,-0.7809,-0.7782,-0.7773,-0.7759,-0.7746,-0.7741,-0.7722,-0.7714,-0.77,-0.7681,-0.7658,-0.7643,-0.7621,-0.7587,-0.7581,-0.7572,-0.7569,-0.7567,-0.7563,-0.7543,-0.7539,-0.7587,-0.7587,-0.7588,0,0,-0.784,-0.7825,-0.7811,-0.778,-0.7766,-0.7744,-0.7753,-0.7729,-0.7712,-0.7711,-0.768,-0.7669,-0.7647,-0.7614,-0.7598,-0.7603,-0.7549,-0.7564,-0.7562,-0.756,-0.7541,-0.7536,-0.7532,-0.7586,-0.7586,-0.7587,0,0,-0.7809,-0.7796,-0.7771,-0.7757,-0.7735,-0.7726,-0.7721,-0.7699,-0.7691,-0.7661,-0.7659,-0.7639,-0.7601,-0.7585,-0.7572,-0.7537,-0.7536,-0.753,-0.7514,-0.7495,-0.7492,-0.7488,-0.7474,-0.747,-0.7527,-0.7527,-0.7527,0,-0.7799,-0.7765,-0.7758,-0.7734,-0.772,-0.7719,-0.7694,-0.768,-0.7653,-0.7643,-0.7649,-0.7601,-0.7586,-0.7549,-0.7541,-0.7531,-0.7523,-0.7532,-0.7493,-0.7489,-0.7486,-0.7473,-0.7468,-0.7526,-0.7526,-0.7526,-0.7526,0,-0.7753,-0.773,-0.7713,-0.7686,-0.7671,-0.7646,-0.7635,-0.762,-0.7617,-0.7607,-0.7576,-0.7559,-0.7533,-0.7525,-0.7521,-0.7487,-0.7491,-0.7495,-0.7505,-0.7481,-0.7468,-0.7463,-0.7525,-0.7525,-0.7526,-0.7526,0,0,-0.7716,-0.7688,-0.7681,-0.7669,-0.7646,-0.7628,-0.7603,-0.7579,-0.7566,-0.7547,-0.7526,-0.7494,-0.7498,-0.7483,-0.7478,-0.7462,-0.7434,-0.7468,-0.7467,-0.7461,-0.7394,-0.739,-0.7384,-0.7434,-0.7433,-0.7432,-0.7396,0,-0.7682,-0.7639,-0.7632,-0.7594,-0.7572,-0.7571,-0.755,-0.7533,-0.7524,-0.7504,-0.7493,-0.747,-0.7478,-0.7469,-0.7453,-0.7441,-0.742,-0.7443,-0.7413,-0.7412,-0.7417,-0.7378,-0.7373,-0.7339,-0.7391,-0.739,-0.7389,0,-0.7636,-0.7617,-0.7576,-0.7556,-0.7547,-0.7528,-0.7505,-0.7486,-0.7467,-0.7461,-0.7446,-0.7443,-0.7417,-0.743,-0.7394,-0.741,-0.7397,-0.739,-0.7388,-0.7384,-0.7398,-0.7371,-0.7329,-0.7323,-0.7382,-0.7382,-0.7383,0,-0.7612,-0.7576,-0.7547,-0.7537,-0.7513,-0.75,-0.7489,-0.7471,-0.7457,-0.7437,-0.7428,-0.7405,-0.7392,-0.7375,-0.7366,-0.7376,-0.733,-0.7342,-0.7324,-0.7324,-0.7313,-0.7313,-0.7266,-0.7307,-0.7307,-0.7307,-0.7307,0,-0.7574,-0.7549,-0.7536,-0.7518,-0.749,-0.7483,-0.7455,-0.7445,-0.7429,-0.7408,-0.7407,-0.7388,-0.7378,-0.7357,-0.735,-0.7321,-0.7316,-0.731,-0.7308,-0.7309,-0.7309,-0.7299,-0.7301,-0.7306,-0.7306,-0.7306,-0.7307,0,-0.7541,-0.7532,-0.75,-0.7481,-0.7475,-0.7455,-0.7438,-0.7421,-0.7412,-0.7386,-0.738,-0.7366,-0.7342,-0.7331,-0.7301,-0.7297,-0.7263,-0.7263,-0.7269,-0.7268,-0.725,-0.7251,-0.7193,-0.7185,-0.7233,-0.7232,-0.7232,0,-0.7517,-0.7498,-0.7476,-0.7463,-0.7452,-0.743,-0.7416,-0.7409,-0.7394,-0.7371,-0.7356,-0.7332,-0.7312,-0.7273,-0.726,-0.7237,-0.7236,-0.7218,-0.7233,-0.7234,-0.7234,-0.7235,-0.7233,-0.7214,-0.7214,-0.7213,-0.7213,0,-0.7474,-0.747,-0.745,-0.7428,-0.7411,-0.7394,-0.7377,-0.7366,-0.7356,-0.7339,-0.7314,-0.7299,-0.7269,-0.7244,-0.7221,-0.721,-0.7209,-0.7209,-0.7203,-0.7203,-0.7207,-0.7203,-0.726,-0.721,-0.721,-0.721,-0.721,-0.7211,-0.7444,-0.7426,-0.7409,-0.7386,-0.7373,-0.7357,-0.7339,-0.7329,-0.7308,-0.7283,-0.728,-0.7254,-0.7236,-0.7204,-0.7192,-0.7171,-0.7175,-0.7167,-0.7165,-0.7163,-0.7161,-0.7212,-0.7167,-0.7167,-0.7167,-0.7167,-0.7167,0,-0.74,-0.7388,-0.7368,-0.7344,-0.7326,-0.7329,-0.731,-0.7295,-0.7272,-0.7255,-0.7236,-0.7208,-0.7184,-0.717,-0.7146,-0.7132,-0.7131,-0.7126,-0.7126,-0.7123,-0.7159,-0.7165,-0.7127,-0.7127,-0.7127,-0.7127,-0.7127,-0.7127,-0.7374,-0.7345,-0.734,-0.7304,-0.7293,-0.7267,-0.7256,-0.7241,-0.7228,-0.7196,-0.7177,-0.7168,-0.7152,-0.7128,-0.7106,-0.7103,-0.7094,-0.7088,-0.7084,-0.7117,-0.7121,-0.7125,-0.7131,-0.7086,-0.7086,-0.7051,-0.705,-0.705]},{"header":{"parameterUnit":"m.s-1","parameterCategory":1,"la1":30.2991,"la2":30.254,"lo1":-89.0895,"lo2":-89.0444,"dy":0.0017,"dx":0.0017,"nx":28,"ny":28,"refTime":"2025-03-31T03:00:00:Z","depth":0,"parameterNumber":3,"parameterNumberName":"V-component_of_WINDS"},"data":[0,0,0,0,0,0,0,0,0,0,0,0,0,0,0,0,0,0,0,0,0,0,0,0,0,0,0,0,0,0,0,0,0,0,0,0,0,0,0,0,0,0,0,0,0,0,0,0,0,0,0,0,0,0,0,0,0,0,0.9211,0.9211,0,0.9227,0.9228,0.9228,0.9196,0.9195,0.9194,0.9193,0.921,0.9211,0.9213,0,0,0,0,0,0,0,0,0,0,0,0,0,0.9153,0.9154,0.9211,0.9211,0.9212,0.9227,0.9228,0.9228,0.9196,0.9195,0.9194,0.9193,0.9209,0.9211,0.9213,0,0,0,0,0,0,0,0,0,0,0,0,0,0.9174,0.9154,0.9211,0.9198,0.9197,0.9227,0.9228,0.9228,0.9197,0.9195,0.9193,0.9192,0.9209,0.9211,0.9213,0.9257,0,0,0.922,0.922,0,0,0,0,0,0,0,0,0.9173,0.9177,0.92,0.9199,0.9198,0.9208,0.9213,0.9238,0.9197,0.9197,0.9193,0.9191,0.9211,0.9212,0.9219,0.9258,0.9259,0.922,0.9221,0.9222,0.9223,0,0,0,0,0,0,0,0.9172,0.9176,0.9218,0.92,0.9199,0.9191,0.9192,0.9218,0.9212,0.9197,0.9194,0.9197,0.921,0.9217,0.9219,0.9259,0.922,0.9222,0.9223,0.9224,0.9336,0.9337,0,0,0,0,0,0,0.9172,0.9175,0.9217,0.9218,0.9181,0.9193,0.9195,0.9206,0.9212,0.9211,0.9198,0.9195,0.9214,0.9217,0.922,0.9272,0.9222,0.9224,0.9225,0.9334,0.9336,0.9338,0,0,0,0,0,0,0.9171,0.9176,0.9216,0.9196,0.92,0.9196,0.9209,0.9207,0.9215,0.9213,0.9212,0.9206,0.9213,0.9217,0.9248,0.9272,0.9225,0.9227,0.9332,0.9334,0.9337,0.9378,0,0,0,0,0,0,0.9169,0.9176,0.9193,0.9196,0.9202,0.9245,0.9211,0.9209,0.9218,0.9215,0.922,0.922,0.9212,0.9245,0.925,0.9275,0.9228,0.933,0.9333,0.9336,0.9375,0.9382,0.9388,0,0,0,0,0,0.9167,0.9204,0.9194,0.9199,0.9223,0.9247,0.925,0.924,0.922,0.9238,0.9236,0.922,0.9269,0.9249,0.9254,0.9279,0.9328,0.9332,0.9336,0.9372,0.938,0.9388,0,0,0,0,0,0,0.9204,0.9204,0.9193,0.9232,0.9239,0.9241,0.9263,0.9249,0.9262,0.9259,0.9246,0.9247,0.9281,0.9283,0.9261,0.9323,0.9295,0.93,0.9321,0.9329,0.9335,0.9335,0.923,0,0,0,0,0,0.9216,0.9236,0.9235,0.9269,0.9273,0.9267,0.9277,0.9269,0.9276,0.9279,0.928,0.9288,0.9305,0.9317,0.9332,0.9374,0.9375,0.9394,0.9401,0.9406,0.9411,0.9434,0.9442,0.935,0.935,0.935,0,0,0.9243,0.9245,0.9258,0.9277,0.9281,0.9302,0.927,0.9293,0.9308,0.9283,0.9313,0.9314,0.9322,0.9359,0.9375,0.9361,0.9436,0.9411,0.9415,0.9417,0.9438,0.9447,0.9455,0.9353,0.9352,0.9352,0,0,0.9301,0.9305,0.9334,0.9339,0.9347,0.9342,0.9349,0.9353,0.9352,0.9382,0.9363,0.9381,0.941,0.9417,0.9424,0.9483,0.9469,0.9489,0.9524,0.9546,0.9553,0.956,0.9582,0.959,0.9493,0.9493,0.9493,0,0.9333,0.9363,0.9351,0.9375,0.9384,0.9361,0.939,0.9396,0.9408,0.9415,0.9399,0.9435,0.9439,0.9477,0.9492,0.9498,0.9505,0.9489,0.9553,0.956,0.9565,0.9586,0.9595,0.9496,0.9496,0.9495,0.9495,0,0.9402,0.9423,0.9446,0.9458,0.9469,0.9496,0.9487,0.95,0.949,0.9487,0.9518,0.9521,0.9537,0.9545,0.9535,0.9582,0.9573,0.9555,0.9528,0.9577,0.9596,0.9604,0.9499,0.9499,0.9498,0.9497,0,0,0.9486,0.949,0.9499,0.9504,0.951,0.9526,0.9551,0.9567,0.9578,0.9587,0.9608,0.9633,0.9617,0.9625,0.9615,0.9635,0.9682,0.9615,0.9614,0.9628,0.9734,0.9749,0.9758,0.9672,0.9673,0.9675,0.9734,0,0.9545,0.9589,0.9578,0.9622,0.9641,0.9619,0.9641,0.9647,0.9645,0.966,0.9657,0.9676,0.9652,0.9657,0.9675,0.9673,0.9704,0.9668,0.9692,0.9693,0.9693,0.9768,0.9784,0.984,0.9741,0.9743,0.9744,0,0.962,0.9632,0.9678,0.968,0.9688,0.9708,0.9721,0.9736,0.9742,0.9739,0.9747,0.9734,0.9759,0.973,0.9764,0.974,0.9749,0.9749,0.9751,0.9755,0.9723,0.9775,0.9857,0.9866,0.9755,0.9754,0.9753,0,0.9678,0.9705,0.9736,0.9741,0.9744,0.9759,0.9761,0.9765,0.9775,0.9786,0.9792,0.9806,0.9814,0.9825,0.9815,0.9795,0.9851,0.9821,0.985,0.985,0.9864,0.9864,0.9951,0.9868,0.9868,0.9867,0.9867,0,0.9746,0.9776,0.9762,0.9781,0.9813,0.9799,0.9831,0.9831,0.9835,0.9853,0.9834,0.9852,0.9838,0.9854,0.9847,0.9877,0.988,0.9878,0.9877,0.9881,0.9882,0.9888,0.9885,0.987,0.9869,0.9869,0.9868,0,0.9818,0.981,0.9842,0.9842,0.9843,0.9866,0.9866,0.9884,0.9879,0.9903,0.9908,0.9901,0.9919,0.991,0.993,0.9925,0.9963,0.9955,0.9962,0.996,0.999,0.9988,1.0085,1.0098,1.0005,1.0006,1.0007,0,0.9863,0.9885,0.9887,0.9898,0.9901,0.9919,0.9929,0.9915,0.9926,0.9934,0.9951,0.9967,0.998,1.001,1.0007,1.0022,1.0015,1.0048,1.0017,1.0021,1.0017,1.0016,1.0019,1.0055,1.0056,1.0057,1.0057,0,0.9943,0.9938,0.9953,0.9966,0.9978,0.9988,0.9996,1.0006,0.9993,1.0006,1.0024,1.0034,1.0053,1.007,1.0083,1.0084,1.0069,1.0067,1.0074,1.008,1.0084,1.0083,0.998,1.0065,1.0064,1.0064,1.0063,1.0063,1.0004,1.0022,1.0027,1.0044,1.0048,1.0056,1.0072,1.007,1.0085,1.0099,1.009,1.0112,1.0116,1.0132,1.0135,1.0152,1.0139,1.015,1.0153,1.0156,1.0161,1.0079,1.0154,1.0154,1.0153,1.0153,1.0153,0,1.0085,1.0086,1.0102,1.0113,1.0127,1.011,1.0118,1.013,1.0149,1.0155,1.0167,1.0188,1.0204,1.0202,1.0216,1.023,1.0223,1.0234,1.0234,1.0235,1.0171,1.0163,1.024,1.024,1.024,1.024,1.024,1.024,1.0129,1.0159,1.0154,1.0186,1.0187,1.0208,1.0214,1.0221,1.0226,1.025,1.0263,1.0261,1.0263,1.0277,1.0291,1.029,1.0297,1.0311,1.0307,1.0248,1.0239,1.0231,1.0224,1.0312,1.0312,1.037,1.0371,1.0371]}]]